Content
SEND FEEDBACK

Daily
Averages
Monthly
Summary
United Kingdom

SOUTHEND, ENGLAND


Home > Europe > United Kingdom > England
Elevation: 48 feet     Latitude: 51 34N     Longitude: 000 41E

WEATHER
 
SELECT A DAY
Number of Records: 212,361;   Date Range: 7/1/96 - 9/21/14
 
SHARE

PRINT THIS DATA

[ ← Previous Day ]
WEATHER ALMANAC - SEPTEMBER 25, 2013
[ Next Day → ]
[ °C ]   °F
Weather ElementAverageHighLow
Temperature60.4 °F68 °F (2:20 pm)50 °F (1:50 am)
Dewpoint56.3 °F59 °F (9:50 am)50 °F (1:20 am)
Humidity87.2 %100 % (12:50 am)68 % (2:50 pm)
Barometer29.87 in29.92 in (12:50 am)29.83 in (2:50 pm)
Wind Speed3.1 mph5.8 mph (10:20 pm)
Weather ElementAverage
Visibility3.1 mi
Wind DirectionSSE (163 °)

Weather ElementTotal
Precipitation---
Heating Degree Days6 (Base 65)
Growing Degree Days9 (Base 50)
Averaged from 44 records on September 25, 2013
WEATHER CONDITIONS BREAKOUT
WIND DIRECTION BREAKOUT
WEATHER BY HOUR - SEPTEMBER 25, 2013
[ °C ]   °F
Local TimeTemperatureDewpointHumidityBarometerVisibilityWind DirectionWind SpeedGust SpeedPrecipitationEventsConditions
12:50 AM51.8 °F51.8 °F100 %29.92 in0.3 miNorth (10°)2.3 mphFogFog
1:20 AM51.8 °F50.0 °F94 %29.92 in0.2 miNorth (10°)2.3 mphFogFog
1:50 AM50.0 °F50.0 °F100 %29.92 in0.2 miWest (270°)2.3 mphFogFog
2:50 AM50.0 °F50.0 °F100 %29.92 in0.1 miWest (270°)2.3 mphFogFog
3:50 AM53.6 °F53.6 °F100 %29.89 in0.6 miNorth (10°)2.3 mphMostly Cloudy
4:50 AM53.6 °F53.6 °F100 %29.89 in1.9 miNNW (340°)2.3 mphMostly Cloudy
5:20 AM55.4 °F53.6 °F94 %29.89 in1.9 miNNW (340°)2.3 mphScattered Clouds
5:50 AM55.4 °F53.6 °F94 %29.89 in2.2 miNNW (340°)2.3 mphFogMostly Cloudy
6:20 AM55.4 °F55.4 °F100 %29.86 in2.5 miNNW (340°)3.5 mphFogMostly Cloudy
6:50 AM55.4 °F55.4 °F100 %29.89 in1.7 miWNW (300°)3.5 mphMostly Cloudy
7:20 AM55.4 °F55.4 °F100 %29.89 in1.6 miNorth (360°)1.2 mphScattered Clouds
7:50 AM57.2 °F55.4 °F94 %29.89 in1.6 miNW (310°)2.3 mphScattered Clouds
8:20 AM55.4 °F55.4 °F100 %29.86 in1.6 miNorth (360°)2.3 mphScattered Clouds
8:50 AM57.2 °F57.2 °F100 %29.86 in1.6 miCalmScattered Clouds
9:20 AM57.2 °F57.2 °F100 %29.86 in1.6 miCalmScattered Clouds
9:50 AM59.0 °F59.0 °F100 %29.86 in1.6 miVariable3.5 mphScattered Clouds
10:20 AM60.8 °F57.2 °F88 %29.86 in2.2 miVariable3.5 mphPartly Cloudy
10:50 AM62.6 °F57.2 °F82 %29.86 in3.1 miVariable3.5 mphHaze
11:20 AM64.4 °F57.2 °F77 %29.86 in3.1 miEast (100°)4.6 mphHaze
11:50 AM64.4 °F59.0 °F83 %29.86 in3.1 miVariable3.5 mphHaze
12:20 PM64.4 °F57.2 °F77 %29.86 in3.1 miVariable3.5 mphHaze
12:50 PM66.2 °F57.2 °F73 %29.86 in3.1 miVariable3.5 mphHaze
1:20 PM66.2 °F57.2 °F73 %29.86 in4.3 miVariable3.5 mphPartly Cloudy
1:50 PM66.2 °F57.2 °F73 %29.86 in4.3 miVariable3.5 mphPartly Cloudy
2:20 PM68.0 °F59.0 °F73 %29.86 in4.3 miVariable3.5 mph
2:50 PM68.0 °F57.2 °F68 %29.83 in4.3 miVariable2.3 mphPartly Cloudy
3:20 PM68.0 °F59.0 °F73 %29.83 in4.3 miVariable3.5 mphPartly Cloudy
3:50 PM68.0 °F57.2 °F68 %29.83 in4.3 miVariable3.5 mphPartly Cloudy
4:20 PM68.0 °F59.0 °F73 %29.83 in5.0 miNNW (340°)4.6 mphPartly Cloudy
4:50 PM68.0 °F59.0 °F73 %29.83 in5.0 miNorth (350°)4.6 mphPartly Cloudy
5:20 PM68.0 °F57.2 °F68 %29.83 in5.6 miNNW (340°)4.6 mphPartly Cloudy
5:50 PM66.2 °F57.2 °F73 %29.83 in5.0 miNorth (360°)4.6 mphPartly Cloudy
6:20 PM66.2 °F57.2 °F73 %29.83 in5.0 miVariable2.3 mphPartly Cloudy
6:50 PM62.6 °F57.2 °F82 %29.83 in4.3 miESE (110°)3.5 mph
7:20 PM60.8 °F57.2 °F88 %29.86 in4.3 miESE (120°)1.2 mph
7:50 PM59.0 °F55.4 °F88 %29.86 in4.3 miCalmPartly Cloudy
8:20 PM59.0 °F55.4 °F88 %29.86 in4.3 miWest (260°)3.5 mphPartly Cloudy
8:50 PM59.0 °F57.2 °F94 %29.86 in5.0 miWSW (240°)2.3 mphPartly Cloudy
9:20 PM59.0 °F57.2 °F94 %29.89 in4.3 miWNW (300°)3.5 mphPartly Cloudy
9:50 PM60.8 °F57.2 °F88 %29.89 in4.3 miNNW (330°)4.6 mphPartly Cloudy
10:20 PM60.8 °F59.0 °F94 %29.89 in4.3 miNorth (350°)5.8 mphPartly Cloudy
10:50 PM60.8 °F57.2 °F88 %29.89 in4.3 miNorth (360°)5.8 mphPartly Cloudy
11:20 PM59.0 °F57.2 °F94 %29.89 in3.1 miNorth (350°)3.5 mphMostly Cloudy
11:50 PM59.0 °F57.2 °F94 %29.89 in2.5 miVariable3.5 mphPartly Cloudy
Hourly data recorded from EGMC, located miles away from Southend, England







STORIES FROM OUR PARTNERS